TimeEDT,TemperatureF,Dew PointF,Humidity,Sea Level PressureIn,VisibilityMPH,Wind Direction,Wind SpeedMPH,Gust SpeedMPH,PrecipitationIn,Events,Conditions,WindDirDegrees,DateUTC
12:54 AM,54.0,53.1,97,30.09,10.0,East,3.5,-,0.03,Rain,Light Rain,100,2013-06-07 04:54:00
1:54 AM,54.0,54.0,100,30.07,7.0,ENE,8.1,-,0.01,Rain,Light Rain,60,2013-06-07 05:54:00
2:54 AM,54.0,53.1,97,30.05,10.0,East,5.8,-,0.02,,Overcast,80,2013-06-07 06:54:00
3:47 AM,54.0,54.0,100,30.05,10.0,ESE,4.6,-,N/A,,Overcast,120,2013-06-07 07:47:00
3:54 AM,54.0,54.0,100,30.05,10.0,ESE,4.6,-,N/A,,Overcast,120,2013-06-07 07:54:00
4:18 AM,54.0,53.1,97,30.04,10.0,East,6.9,-,N/A,,Overcast,100,2013-06-07 08:18:00
4:25 AM,54.0,53.1,97,30.04,10.0,East,5.8,-,N/A,,Overcast,100,2013-06-07 08:25:00
4:34 AM,53.1,53.1,100,30.05,10.0,ESE,4.6,-,N/A,,Overcast,110,2013-06-07 08:34:00
4:54 AM,53.1,52.0,96,30.05,10.0,ESE,4.6,-,N/A,,Overcast,120,2013-06-07 08:54:00
5:15 AM,53.1,52.0,96,30.04,10.0,East,4.6,-,N/A,,Overcast,90,2013-06-07 09:15:00
5:54 AM,53.1,52.0,96,30.05,10.0,East,5.8,-,0.00,,Overcast,100,2013-06-07 09:54:00
6:03 AM,53.1,52.0,96,30.04,10.0,East,5.8,-,N/A,,Overcast,80,2013-06-07 10:03:00
6:54 AM,53.1,51.1,93,30.05,10.0,East,6.9,-,0.00,Rain,Light Rain,90,2013-06-07 10:54:00
7:54 AM,53.1,52.0,96,30.04,8.0,ENE,5.8,-,0.02,Rain,Light Rain,70,2013-06-07 11:54:00
8:12 AM,53.1,52.0,96,30.04,10.0,ENE,8.1,-,0.01,Rain,Light Rain,60,2013-06-07 12:12:00
8:25 AM,53.1,52.0,96,30.04,10.0,NE,9.2,-,0.02,Rain,Light Rain,50,2013-06-07 12:25:00
8:34 AM,53.1,52.0,96,30.04,7.0,NE,10.4,-,0.02,Rain,Light Rain,50,2013-06-07 12:34:00
8:54 AM,52.0,50.0,93,30.05,7.0,ENE,9.2,-,0.03,Rain,Light Rain,70,2013-06-07 12:54:00
9:20 AM,52.0,52.0,100,30.04,1.0,ENE,9.2,-,0.02,Rain,Light Rain,60,2013-06-07 13:20:00
9:54 AM,52.0,52.0,100,30.05,1.0,ENE,6.9,-,0.04,Rain,Light Rain,60,2013-06-07 13:54:00
10:04 AM,52.0,52.0,100,30.03,0.5,NE,8.1,-,0.00,Rain,Light Rain,50,2013-06-07 14:04:00
10:22 AM,52.0,52.0,100,30.03,0.2,ENE,6.9,-,0.01,Fog-Rain,Rain,70,2013-06-07 14:22:00
10:54 AM,52.0,52.0,100,30.05,0.2,ENE,10.4,-,0.08,Fog-Rain,Rain,60,2013-06-07 14:54:00
11:49 AM,53.6,53.6,100,30.03,0.5,ENE,8.1,-,0.13,Rain,Rain,60,2013-06-07 15:49:00
11:54 AM,53.1,53.1,100,30.04,0.5,ENE,10.4,-,0.14,Rain,Rain,60,2013-06-07 15:54:00
12:54 PM,54.0,54.0,100,30.03,0.5,ENE,6.9,-,0.09,Rain,Rain,60,2013-06-07 16:54:00
1:54 PM,55.0,55.0,100,30.01,0.2,ENE,9.2,-,0.06,Fog-Rain,Rain,60,2013-06-07 17:54:00
2:54 PM,55.9,55.9,100,29.99,0.2,ENE,11.5,20.7,0.17,Rain,Heavy Rain,70,2013-06-07 18:54:00
3:54 PM,55.0,55.0,100,29.97,1.5,ENE,10.4,20.7,0.33,Rain,Rain,70,2013-06-07 19:54:00
4:54 PM,54.0,54.0,100,29.97,0.8,ENE,10.4,17.3,0.17,Rain,Rain,70,2013-06-07 20:54:00
5:28 PM,54.0,54.0,100,29.95,2.0,ENE,13.8,-,0.05,Rain,Light Rain,70,2013-06-07 21:28:00
5:37 PM,54.0,53.1,97,29.95,1.0,East,13.8,23.0,0.06,Rain,Light Rain,80,2013-06-07 21:37:00
5:44 PM,53.1,53.1,100,29.95,2.0,East,15.0,24.2,0.07,Rain,Light Rain,80,2013-06-07 21:44:00
5:54 PM,53.1,53.1,100,29.95,2.0,ENE,15.0,-,0.07,Rain,Light Rain,70,2013-06-07 21:54:00
6:15 PM,53.1,53.1,100,29.94,0.5,ENE,13.8,21.9,0.04,Rain,Rain,60,2013-06-07 22:15:00
6:54 PM,53.1,53.1,100,29.94,0.5,ENE,13.8,21.9,0.14,Rain,Rain,60,2013-06-07 22:54:00
7:54 PM,51.1,51.1,100,29.90,0.5,ENE,15.0,24.2,0.08,Rain,Rain,60,2013-06-07 23:54:00
8:54 PM,51.1,51.1,100,29.90,0.5,ENE,15.0,24.2,0.38,Rain,Heavy Rain,60,2013-06-08 00:54:00
9:54 PM,50.0,50.0,100,29.88,0.5,NE,10.4,19.6,0.20,Rain,Light Rain,40,2013-06-08 01:54:00
10:54 PM,50.0,50.0,100,29.85,0.5,NE,11.5,-,0.04,Rain,Heavy Rain,50,2013-06-08 02:54:00
11:54 PM,50.0,50.0,100,29.82,0.5,NNE,11.5,23.0,0.20,Rain,Heavy Rain,30,2013-06-08 03:54:00